Torna al catalogo

CZ-4 DEB

AttivoSSO
NORAD 26446·DEBRIS·🇨🇳 China

Lanciato Oct 14, 1999 da Taiyuan Satellite Launch Center

Loading…

Prossimi Passaggi (prossime 24 ore)

TLE

AggiornatoSource: Space-Track

Epoca: Sep 14, 2026, 11:27 UTC

1 26446U 99057KT  26257.47775912  .00001117  00000-0  28979-3 0  9994
2 26446  98.5495 331.0257 0092640 207.5323 152.0947 14.49273261383986

Traccia CZ-4 DEB in tempo reale con AllMySat

Download on the App Store